Location: Fenn
(52.1430°N, 112.7440°W)
Time: 23:22:10
(UTC+00:00)

ISS - Visible Passes

Search period start: 08 December 2023 00:00
Search period end: 18 December 2023 00:00
Orbit: 415 x 416 km, 51.6° (Epoch: 08 December)

Date Brightness Start Highest point End Pass type
(mag) Time Alt. Az. Time Alt. Az. Time Alt. Az.
09 Dec 0.2 00:12:51 10° SW 00:13:14 10° SW 00:13:36 10° SW visible
16 Dec -0.8 14:29:27 10° SSW 14:31:55 19° SE 14:34:24 10° E visible
17 Dec -0.6 13:41:45 10° S 13:43:28 13° SE 13:45:11 10° ESE visible
